Location: Casa Rossa
(45.2389°N, 12.2056°E)
Time: 04:29:39
(UTC+00:00)

Cosmos 1242 Rocket - Pass Details

Date: 14 July 2020
Orbit: 448 x 487 km, 81.2° (Epoch: 11 August)

Event Time Altitude Azimuth Distance (km) Brightness Sun altitude
Rises 01:42:17 0° 357° (N) 2,465 7.0 -15.4°
Reaches altitude 10° 01:44:28 10° 7° (N) 1,589 6.1 -15.2°
Maximum altitude 01:47:41 35° 75° (ENE) 755 4.0 -14.9°
Drops below altitude 10° 01:50:53 10° 142° (SE) 1,587 5.0 -14.5°
Enters shadow 01:52:28 - 150° (SSE) 2,211 5.7 -14.4°
